MSR512 HESH-UUDD

Flight info

Callsign MSR512
Flight time N/A
Altitude 36000
Route KUPTI L677 CVO L617 NOZ L551 ANTAR UN133 PEREN UL863 EVIVI L863 OKANA DCT VELIP DCT LUVEL DCT KEKED/N0481F370 DCT PODAN M857 BOKSU DCT LAUGA DCT IGORO M864 DURTI DCT BILRU
Aircraft A339/H-SADE1E2E3GHIJ3J5M1P2RWXY/LB2D1

Departure

Time 2026-04-29 10:32
Airport Sharm El Sheikh International Airport (HESH)

Arrival

Time N/A
Airport Domodedovo International Airport (UUDD)
Time Latitude Longitude Altitude Speed Heading
2026-04-29 10:14 27.98086 34.39117 171 ft 0 kts 313°
2026-04-29 10:18 27.98085 34.39117 174 ft 0 kts 313°
2026-04-29 10:19 27.98081 34.39123 170 ft 2 kts 313°
2026-04-29 10:19 27.98070 34.39136 171 ft 2 kts 313°
2026-04-29 10:19 27.98061 34.39148 169 ft 0 kts 323°
2026-04-29 10:20 27.98060 34.39150 169 ft 0 kts 327°
2026-04-29 10:20 27.98058 34.39151 169 ft 0 kts 331°
2026-04-29 10:22 27.98044 34.39161 170 ft 2 kts 289°
2026-04-29 10:22 27.98039 34.39179 171 ft 2 kts 252°
2026-04-29 10:22 27.98045 34.39196 171 ft 0 kts 224°
2026-04-29 10:27 27.98041 34.39192 171 ft 2 kts 224°
2026-04-29 10:27 27.98020 34.39169 159 ft 7 kts 224°
2026-04-29 10:27 27.97979 34.39124 178 ft 9 kts 223°
2026-04-29 10:28 27.97928 34.39072 178 ft 11 kts 223°
2026-04-29 10:28 27.97870 34.39012 178 ft 13 kts 223°
2026-04-29 10:28 27.97796 34.38935 178 ft 16 kts 222°
2026-04-29 10:28 27.97705 34.38841 178 ft 19 kts 223°
2026-04-29 10:29 27.97605 34.38736 178 ft 18 kts 223°
2026-04-29 10:29 27.97512 34.38639 178 ft 18 kts 223°
2026-04-29 10:29 27.97417 34.38540 178 ft 20 kts 223°
2026-04-29 10:29 27.97315 34.38434 178 ft 20 kts 222°
2026-04-29 10:30 27.97204 34.38320 178 ft 22 kts 223°
2026-04-29 10:30 27.97100 34.38212 178 ft 21 kts 222°
2026-04-29 10:30 27.97023 34.38135 178 ft 11 kts 214°
2026-04-29 10:30 27.96968 34.38153 179 ft 8 kts 136°
2026-04-29 10:31 27.96927 34.38197 179 ft 9 kts 135°
2026-04-29 10:31 27.96885 34.38255 179 ft 10 kts 114°
2026-04-29 10:31 27.96910 34.38314 179 ft 8 kts 49°
2026-04-29 10:31 27.96955 34.38365 179 ft 14 kts 45°
2026-04-29 10:32 27.97224 34.38642 180 ft 92 kts 42°
2026-04-29 10:32 27.97868 34.39315 181 ft 156 kts 43°
2026-04-29 10:32 27.98735 34.40241 561 ft 178 kts 41°
2026-04-29 10:32 27.99669 34.41201 1373 ft 180 kts 36°
2026-04-29 10:33 28.00759 34.41826 2138 ft 181 kts 22°
2026-04-29 10:33 28.02004 34.42341 2573 ft 199 kts 19°
2026-04-29 10:33 28.03343 34.42887 3114 ft 211 kts 20°
2026-04-29 10:33 28.04773 34.43552 3627 ft 232 kts 23°
2026-04-29 10:34 28.06284 34.44368 4125 ft 250 kts 26°
2026-04-29 10:34 28.07882 34.45311 4520 ft 263 kts 27°
2026-04-29 10:34 28.09500 34.46287 5141 ft 265 kts 27°
2026-04-29 10:34 28.11076 34.47238 5714 ft 268 kts 26°
2026-04-29 10:35 28.12794 34.48094 6311 ft 270 kts 15°
2026-04-29 10:35 28.14614 34.48447 6942 ft 269 kts